#timestamp,LO_Frequency,Hit,StdDev 
1628028015.2,286046999.8,N
1628028035.9,286047000.8,N
1628028055.7,286046999.9,N
1628028075.6,286047000.2,N
1628028095.4,286047000.6,N
1628028115.2,286047000.5,N
1628028135.1,286047000.4,N
1628028136.0,286047000.4,N
1628028155.8,286047000.0,N
1628028175.7,286047001.1,N
1628028195.5,286046998.6,N
1628028215.3,286047000.7,N
1628028235.2,286046998.1,N
1628028255.2,286046999.9,N
1628028275.0,286047000.3,N
1628028275.9,286047000.3,N
1628028295.8,286047000.0,N
1628028315.6,286047002.5,N
1628028335.5,286047000.1,N
1628028355.3,286046998.1,N
1628028375.1,286046999.6,N
1628028395.9,286046997.7,N
1628028415.7,286046996.5,N
1628028435.6,286046999.5,N
1628028455.4,286046999.0,N
1628028475.2,286046998.2,N
1628028495.1,286046997.1,N
1628028496.0,286046997.1,N
1628028515.8,286046995.3,Y
1628028535.7,286046997.4,P
1628028555.5,286046996.7,N
1628028575.3,286046997.8,N
1628028595.2,286046995.7,Y
1628028615.0,286046997.2,P
1628028615.9,286046997.2,P
1628028635.8,286046999.4,N
1628028655.6,286047001.2,N
1628028675.4,286046999.0,N
1628028695.3,286046996.5,N
1628028715.1,286046999.4,N
1628028735.8,286046996.6,N
1628028755.7,286046998.0,N
1628028775.5,286046995.3,Y
1628028795.4,286046999.1,P
1628028815.2,286046997.7,P
1628028835.0,286046997.2,P
1628028835.9,286046997.2,Y
1628028855.8,286046996.9,P
1628028875.6,286046995.8,P
1628028895.5,286046996.8,P
1628028915.3,286046998.0,N
1628028935.1,286046995.7,Y
1628028955.9,286046999.0,P
1628028975.7,286046996.8,P
1628028995.6,286046996.6,P
1628029015.4,286046997.4,N
1628029035.2,286046997.5,N
1628029055.1,286046996.2,Y
1628029056.0,286046996.2,P
1628029075.8,286046998.1,P
1628029095.6,286047001.2,N
1628029115.5,286046996.9,N
1628029135.3,286046997.7,N
1628029155.2,286046997.4,N
1628029175.9,286046996.8,N
1628029195.7,286046997.6,N
1628029215.6,286046997.8,N
1628029235.4,286046996.2,N
1628029255.2,286046993.8,Y
1628029275.1,286046996.9,P
1628029276.0,286046996.9,P
1628029295.8,286046999.6,N
1628029315.7,286047001.0,N
1628029335.1,286047002.8,N
1628029336.0,286047002.8,N
1628029355.8,286047002.7,N
1628029375.7,286047002.7,N
1628029395.5,286047000.3,N
1628029415.4,286047000.0,N
1628029435.2,286046998.5,N
1628029455.0,286047000.5,N
1628029455.9,286047000.5,N
1628029505.8,286047003.6,E
1628029515.7,286047001.6,N
1628029535.6,286047000.0,P
1628029555.4,286046999.8,N
1628029575.2,286047000.2,N
1628029595.1,286047001.0,N
1628029596.0,286047001.0,N
1628029615.8,286047000.7,N
1628029635.7,286046998.9,N
1628029655.5,286046999.1,N
1628029675.3,286046999.4,N
1628029695.2,286046998.1,N
1628029715.0,286046998.9,N
1628029715.9,286046998.9,N
1628029735.7,286046999.4,N
1628029755.6,286046997.7,N
1628029775.4,286046998.0,N
1628029795.3,286046997.0,N
1628029815.1,286046997.9,N
1628029816.0,286046997.9,N
1628029835.8,286046995.2,Y
1628029855.7,286046999.3,P
1628029875.5,286046998.9,P
1628029895.4,286046998.9,P
1628029915.2,286046999.4,Y
1628029935.0,286046998.5,P
1628029935.9,286046998.5,P
1628029955.8,286047000.9,P
1628029975.6,286046998.8,N
1628029995.4,286046999.4,N
1628030015.3,286046998.1,N
1628030035.1,286047000.9,N
1628030055.9,286047001.1,N
1628030075.7,286046998.9,N
1628030095.5,286046997.7,N
1628030115.4,286046996.1,Y
1628030135.2,286046997.2,P
1628030155.1,286046998.3,N
1628030156.0,286046998.3,N
1628030175.8,286046998.2,N
1628030195.6,286046996.5,Y
1628030215.5,286046999.8,P
1628030235.3,286047000.2,N
1628030255.1,286047000.4,N
1628030275.9,286047001.1,N
1628030295.7,286046998.2,N
1628030315.6,286047002.3,N
1628030335.4,286047002.1,N
1628030355.2,286047001.3,N
1628030375.1,286047001.9,N
1628030376.0,286047001.9,N
1628030395.8,286047005.7,Y
1628030415.7,286047003.2,P
1628030435.5,286047003.8,N
1628030455.6,286047004.2,P
1628030475.5,286047003.1,N
1628030495.3,286047003.9,Y
1628030515.1,286046998.5,P
1628030535.9,286046999.5,N
1628030555.7,286046996.5,N
1628030575.5,286047001.0,N
1628030595.4,286047001.2,N
1628030615.2,286046998.2,N
1628030635.1,286046998.5,N
1628030636.0,286046998.5,N
1628030655.8,286046998.1,N
1628030675.6,286047000.0,N
1628030695.5,286047000.1,N
1628030715.3,286046998.2,N
1628030735.2,286047001.2,N
1628030755.9,286046998.3,N
1628030775.7,286047000.9,N
1628030795.6,286047000.5,N
1628030815.4,286047000.8,N
1628030835.2,286047000.3,N
1628030855.1,286047000.3,N
1628030856.0,286047000.3,N
1628030875.8,286047000.8,N
1628030895.7,286047000.7,N
1628030915.5,286047000.5,N
1628030935.3,286047001.2,N
1628030955.2,286046998.3,N
1628030975.0,286046998.5,N
1628030975.9,286046998.5,N
1628030995.8,286047001.9,N
1628031015.6,286047004.8,Y
1628031035.4,286047007.6,P
1628031055.3,286047006.3,N
1628031075.1,286047008.3,N
1628031095.8,286047010.3,Y
1628031115.7,286047005.2,P
1628031135.5,286047007.0,P
1628031155.4,286047007.6,P
1628031175.2,286047005.8,Y
1628031195.0,286046999.1,P
1628031195.9,286046999.1,N
1628031215.8,286046999.0,N
1628031235.6,286046998.9,N
1628031255.5,286047000.6,N
1628031275.3,286047002.8,N
1628031295.1,286046999.8,N
1628031315.9,286047003.9,N
1628031335.7,286047004.8,N
1628031355.5,286047005.9,N
1628031375.4,286047005.4,N
1628031395.2,286047004.8,N
1628031415.0,286047003.7,N
1628031416.0,286047003.7,N
1628031435.8,286047003.8,N
1628031455.6,286047003.8,N
1628031475.5,286047004.4,N
1628031495.3,286047003.0,N
1628031515.1,286047003.0,N
1628031535.9,286047005.4,N
1628031555.7,286047005.6,N
1628031575.5,286047004.9,N
1628031595.4,286047004.5,N
